Location: Peebles
(55.6412°N, 3.1714°W)
Time: 15:14:28
(UTC+01:00)

Helios 1A Rocket - Pass Details

Date: 26 September 2021
Orbit: 561 x 586 km, 98.3° (Epoch: 17 October)

Event Time Altitude Azimuth Distance (km) Brightness Sun altitude
Exits shadow 21:21:02 28° 182° (S) 1,109 4.1 -19.9°
Maximum altitude 21:23:06 64° 256° (WSW) 640 3.2 -20.2°
Drops below altitude 10° 21:27:10 10° 339° (NNW) 1,887 6.2 -20.7°
Sets 21:29:20 0° 343° (NNW) 2,786 7.1 -20.9°
